Flag for Poland Weather past 2 weeks in Kielce, Poland

Now
34 °F

Light rain. Low clouds.


Feels Like: 28 °F
Forecast: 33 / 39 °F
Wind: 8 mph from West

Location: Kielce

Current Time: Apr 1, 2015 at 8:52:17 AM

Latest Report: Apr 1, 2015 at 8:00 AM


Visibility: 2 mi

Pressure: 29.44 "Hg

Humidity: 94%

Dew point: 33 °F

Location of KielceLocation

Historic Weather in Kielce — Graph

°F

Kielce temperature yesterday

Maximum temperature yesterday: 44 °F (at 8:00 PM)
Minimum temperature yesterday: 33 °F (at 3:00 PM)
Average temperature yesterday: 39 °F

Past Weeks' High & Low Weather Summary

 TemperatureHumidityPressure
High65 °F (Mar 27, 11:00 AM)100% (Mar 29, 7:00 AM)30.68 "Hg (Mar 29, 7:00 AM)
Low18 °F (Mar 23, 6:00 AM)28% (Mar 23, 4:00 PM)29.26 "Hg (Mar 30, 6:00 AM)
Average42 °F70%29.99 "Hg
* Reported Mar 17 6:00 AM — Apr 1 7:00 AM, Kielce, Weather by CustomWeather, © 2015

Note: Actual official high and low records may vary slightly from our data, if they occured in-between our weather recording intervals... More about our weather records

Advertising

Kielce weather history for previous 24 hours

 ConditionsComfort  
Time TempWeatherWind HumidityBarometerVisibility
7:00 AM
Wed, Apr 1
37 °FSprinkles. Overcast.10 mph78%29.41 "Hg2 mi
6:00 AM38 °FSprinkles. Overcast.12 mph68%29.38 "Hg14 mi
4:00 AM40 °FOvercast.10 mph61%29.38 "Hg31 mi
3:00 AM40 °FOvercast.10 mph62%29.38 "Hg31 mi
2:00 AM41 °FOvercast.10 mph67%29.35 "Hg28 mi
1:00 AM41 °FSprinkles. Low clouds.9 mph80%29.35 "Hg25 mi
12:00 AM41 °FRain showers. Overcast.10 mph85%29.35 "Hg5 mi
10:00 PM
Tue, Mar 31
41 °FOvercast.7 mph88%29.32 "Hg16 mi
9:00 PM41 °FSprinkles. Overcast.7 mph92%29.29 "Hg16 mi
8:00 PM44 °FSprinkles. Overcast.8 mph86%29.26 "Hg10 mi
7:00 PM43 °FSprinkles. Overcast.6 mph91%29.26 "Hg5 mi
6:00 PM43 °FFog.5 mph93%29.26 "Hg5 mi
5:00 PM40 °FLow clouds.5 mph98%29.26 "Hg5 mi
4:00 PM33 °FDrizzle. Low clouds.5 mph98%29.29 "Hg2 mi
3:00 PM33 °FHeavy snow. Low clouds.6 mph97%29.32 "Hg1 mi
2:00 PM33 °FHeavy snow. Low clouds.7 mph96%29.35 "Hg1 mi
1:00 PM36 °FLight snow. Overcast.7 mph89%29.38 "Hg5 mi
12:00 PM36 °FSnow. Overcast.10 mph77%29.47 "Hg4 mi
11:00 AM40 °FOvercast.9 mph67%29.50 "Hg14 mi
10:00 AM40 °FOvercast.7 mph67%29.55 "Hg16 mi
9:00 AM39 °FOvercast.6 mph67%29.59 "Hg16 mi
8:00 AM38 °FOvercast.6 mph75%29.62 "Hg17 mi
Weather by CustomWeather, © 2015

See weather overviewHow to use our weather pages